Weather History for Mount Pleasant, IA

Change the Weather History Date:

Friday, February 1, 2013

  Actual Average Record
Temperature  
Mean Temperature 10 °F -  
Max Temperature 23 °F 34 °F 60 °F (1987)
Min Temperature -3 °F 15 °F -14 °F (1951)
Degree Days  
Heating Degree Days 55    
Moisture  
Dew Point 0 °F    
Average Humidity 69    
Maximum Humidity 77    
Minimum Humidity 60    
Precipitation  
Precipitation 0.00 in - - ()
Sea Level Pressure  
Sea Level Pressure 30.31 in    
Wind  
Wind Speed 10 mph (SW)    
Max Wind Speed 17 mph    
Max Gust Speed 22 mph    
Visibility 10 miles    
Events      
Averages and records for this station are not official NWS values.
T = Trace of Precipitation, MM = Missing Value Source: NWS Daily Summary

Daily Weather History Graph

Daily Weather History Graph

Search for Another Location

Airport:

Trip Planner

Search our weather history database for the weather conditions in past years. The results will help you decide how hot, cold, wet, or windy it might be!

Date:

Astronomy

Feb. 01, 2013 Rise Set
Actual Time 7:16 AM CST 5:23 PM CST
Civil Twilight 6:47 AM CST 5:52 PM CST
Nautical Twilight 6:14 AM CST 6:25 PM CST
Astronomical Twilight 5:42 AM CST 6:57 PM CST
Moon 11:34 PM CST (2/1) 9:46 AM CST (2/1)
Length of Visible Light 11h 05m
Length of Day
10h 07m
Waning Gibbous, 70% of the Moon is Illuminated
Feb 1
Waning Gibbous
Feb 3
Last Quarter
Feb 10
New
Feb 17
First Quarter
Feb 25
Full

Hourly Weather History & Observations

Time (CST) Temp. Windchill Dew Point Humidity Pressure Visibility Wind Dir Wind Speed Gust Speed Precip Events Conditions
12:15 AM 2.8 °F -14.3 °F -5.3 °F 69% 30.35 in 10.0 mi West 12.7 mph - N/A   Clear
12:35 AM 2.7 °F -15.3 °F -5.8 °F 68% 30.36 in 10.0 mi West 13.8 mph 21.9 mph N/A   Clear
12:55 AM 2.3 °F -17.1 °F -6.3 °F 67% 30.37 in 10.0 mi WNW 16.1 mph 20.7 mph N/A   Clear
1:15 AM 2.1 °F -15.2 °F -6.0 °F 69% 30.37 in 10.0 mi West 12.7 mph 20.7 mph N/A   Clear
1:35 AM 1.6 °F -15.1 °F -6.3 °F 69% 30.37 in 10.0 mi West 11.5 mph 16.1 mph N/A   Clear
1:55 AM 1.2 °F -13.7 °F -6.9 °F 69% 30.38 in 10.0 mi West 9.2 mph - N/A   Clear
2:15 AM 0.9 °F -13.1 °F -6.7 °F 71% 30.38 in 10.0 mi West 8.1 mph 16.1 mph N/A   Clear
2:35 AM 0.9 °F -13.1 °F -6.7 °F 71% 30.39 in 10.0 mi West 8.1 mph - N/A   Clear
2:55 AM 0.5 °F -15.6 °F -6.7 °F 72% 30.39 in 10.0 mi West 10.4 mph - N/A   Clear
3:15 AM 0.3 °F -18.3 °F -6.7 °F 72% 30.38 in 10.0 mi West 13.8 mph - N/A   Clear
3:35 AM 0.1 °F -16.9 °F -7.6 °F 70% 30.38 in 10.0 mi West 11.5 mph - N/A   Clear
4:15 AM -0.6 °F -13.6 °F -7.2 °F 73% 30.39 in 10.0 mi West 6.9 mph - N/A   Clear
4:35 AM -0.9 °F -16.4 °F -7.4 °F 74% 30.39 in 10.0 mi West 9.2 mph - N/A   Clear
4:55 AM -1.3 °F -17.8 °F -8.1 °F 73% 30.39 in 10.0 mi WNW 10.4 mph - N/A   Clear
5:15 AM -1.3 °F -17.8 °F -8.5 °F 72% 30.39 in 10.0 mi West 10.4 mph - N/A   Clear
5:35 AM -1.7 °F -16.2 °F -8.7 °F 72% 30.38 in 10.0 mi WNW 8.1 mph - N/A   Clear
5:55 AM -2.2 °F -18.0 °F -8.7 °F 74% 30.39 in 10.0 mi WNW 9.2 mph - N/A   Clear
6:15 AM -2.4 °F -18.2 °F -8.9 °F 74% 30.40 in 10.0 mi West 9.2 mph - N/A   Clear
6:35 AM -2.6 °F -16.0 °F -9.0 °F 74% 30.40 in 10.0 mi West 6.9 mph - N/A   Clear
6:55 AM -2.9 °F -15.0 °F -9.4 °F 74% 30.40 in 10.0 mi West 5.8 mph - N/A   Clear
7:15 AM -3.1 °F -13.5 °F -9.4 °F 74% 30.41 in 10.0 mi West 4.6 mph - N/A   Clear
7:35 AM -2.7 °F -14.8 °F -9.6 °F 73% 30.42 in 10.0 mi West 5.8 mph - N/A   Clear
8:15 AM -2.0 °F -17.7 °F -9.0 °F 72% 30.42 in 10.0 mi West 9.2 mph - N/A   Clear
8:35 AM -1.3 °F -15.7 °F -9.4 °F 69% 30.43 in 10.0 mi West 8.1 mph - N/A   Clear
9:15 AM -0.4 °F -14.7 °F -9.0 °F 67% 30.42 in 10.0 mi WNW 8.1 mph - N/A   Clear
9:35 AM 0.5 °F -11.0 °F -8.7 °F 65% 30.42 in 10.0 mi West 5.8 mph - N/A   Clear
9:55 AM 1.6 °F -9.7 °F -8.3 °F 63% 30.42 in 10.0 mi West 5.8 mph - N/A   Clear
10:15 AM 1.9 °F -9.2 °F -8.0 °F 63% 30.42 in 10.0 mi WSW 5.8 mph - N/A   Clear
10:35 AM 2.8 °F - -8.3 °F 60% 30.43 in 10.0 mi Calm Calm - N/A   Clear
11:15 AM 5.0 °F -8.1 °F -5.6 °F 62% 30.42 in 10.0 mi SW 8.1 mph - N/A   Clear
11:35 AM 5.2 °F -5.4 °F -5.8 °F 61% 30.41 in 10.0 mi SW 5.8 mph - N/A   Clear
11:55 AM 5.9 °F -4.5 °F -4.7 °F 62% 30.40 in 10.0 mi SW 5.8 mph - N/A   Clear
12:15 PM 6.8 °F -3.5 °F -3.5 °F 63% 30.38 in 10.0 mi SW 5.8 mph - N/A   Clear
12:35 PM 7.0 °F -4.5 °F -3.6 °F 62% 30.37 in 10.0 mi SW 6.9 mph - N/A   Mostly Cloudy
12:55 PM 7.9 °F -6.4 °F -2.7 °F 62% 30.37 in 10.0 mi SW 10.4 mph - N/A   Overcast
1:15 PM 8.2 °F -6.8 °F -2.4 °F 62% 30.37 in 10.0 mi SW 11.5 mph - N/A   Overcast
1:35 PM 9.1 °F -4.0 °F -1.8 °F 61% 30.35 in 10.0 mi SW 9.2 mph - N/A   Overcast
1:55 PM 10.0 °F -2.9 °F -1.1 °F 61% 30.34 in 10.0 mi SW 9.2 mph - N/A   Overcast
2:15 PM 11.1 °F -3.2 °F -0.0 °F 61% 30.32 in 10.0 mi SW 11.5 mph - N/A   Overcast
2:35 PM 10.9 °F -1.8 °F 0.3 °F 62% 30.31 in 10.0 mi SSW 9.2 mph - N/A   Overcast
2:55 PM 10.8 °F -2.8 °F -0.4 °F 61% 30.32 in 10.0 mi SSW 10.4 mph - N/A   Overcast
3:15 PM 11.3 °F -1.3 °F 1.2 °F 64% 30.31 in 10.0 mi SSW 9.2 mph - N/A   Overcast
3:35 PM 11.7 °F -1.7 °F 1.4 °F 63% 30.30 in 10.0 mi SSW 10.4 mph - N/A   Overcast
4:15 PM 12.7 °F 0.4 °F 2.5 °F 64% 30.28 in 10.0 mi South 9.2 mph - N/A   Overcast
4:35 PM 13.5 °F 2.2 °F 3.6 °F 65% 30.27 in 10.0 mi South 8.1 mph - N/A   Overcast
4:55 PM 13.6 °F 3.5 °F 3.7 °F 65% 30.26 in 10.0 mi South 6.9 mph - N/A   Overcast
5:15 PM 14.0 °F 2.9 °F 4.8 °F 67% 30.25 in 10.0 mi South 8.1 mph - N/A   Overcast
5:35 PM 14.7 °F 2.9 °F 5.4 °F 66% 30.24 in 10.0 mi South 9.2 mph - N/A   Overcast
5:55 PM 14.9 °F 4.0 °F 5.9 °F 68% 30.23 in 10.0 mi South 8.1 mph - N/A   Overcast
6:15 PM 15.6 °F 5.9 °F 7.5 °F 70% 30.22 in 10.0 mi SSE 6.9 mph - N/A   Overcast
6:35 PM 15.8 °F 5.1 °F 7.9 °F 71% 30.21 in 10.0 mi SSE 8.1 mph - N/A   Overcast
6:55 PM 16.3 °F 5.7 °F 8.8 °F 72% 30.20 in 10.0 mi SSE 8.1 mph - N/A   Overcast
7:15 PM 17.1 °F 4.3 °F 8.4 °F 69% 30.19 in 10.0 mi South 11.5 mph - N/A   Mostly Cloudy
7:35 PM 17.8 °F 4.6 °F 9.3 °F 69% 30.18 in 10.0 mi South 12.7 mph - N/A   Mostly Cloudy
7:55 PM 18.3 °F 5.9 °F 9.1 °F 67% 30.17 in 10.0 mi South 11.5 mph - N/A   Overcast
8:15 PM 18.5 °F 6.1 °F 10.0 °F 70% 30.17 in 10.0 mi South 11.5 mph - N/A   Mostly Cloudy
8:35 PM 19.4 °F 6.0 °F 10.8 °F 69% 30.15 in 10.0 mi South 13.8 mph - N/A   Overcast
8:55 PM 20.1 °F 8.1 °F 12.2 °F 71% 30.16 in 10.0 mi South 11.5 mph - N/A   Overcast
9:15 PM 20.7 °F 6.6 °F 13.6 °F 74% 30.15 in 10.0 mi South 16.1 mph - N/A   Overcast
9:35 PM 20.8 °F 8.4 °F 14.2 °F 75% 30.15 in 10.0 mi SSW 12.7 mph - N/A   Overcast
9:55 PM 20.8 °F 8.4 °F 14.7 °F 77% 30.15 in 10.0 mi SSW 12.7 mph - N/A   Overcast
10:15 PM 21.2 °F 8.9 °F 14.9 °F 77% 30.14 in 10.0 mi SSW 12.7 mph 17.3 mph N/A   Overcast
10:35 PM 21.2 °F 8.9 °F 14.9 °F 77% 30.14 in 10.0 mi SSW 12.7 mph - N/A   Overcast
10:55 PM 21.9 °F 9.2 °F 15.6 °F 77% 30.13 in 10.0 mi SSW 13.8 mph 18.4 mph N/A   Overcast
11:15 PM 22.6 °F 10.1 °F 16.0 °F 76% 30.13 in 10.0 mi SSW 13.8 mph - N/A   Overcast
11:35 PM 23.2 °F 9.4 °F 16.2 °F 75% 30.11 in 10.0 mi SSW 17.3 mph - N/A   Overcast
11:55 PM 23.7 °F 10.5 °F 16.0 °F 72% 30.11 in 10.0 mi SSW 16.1 mph - N/A   Overcast